TimeEDT,TemperatureF,Dew PointF,Humidity,Sea Level PressureIn,VisibilityMPH,Wind Direction,Wind SpeedMPH,Gust SpeedMPH,PrecipitationIn,Events,Conditions,WindDirDegrees,DateUTC
12:53 AM,61.0,59.0,93,29.92,3.0,Calm,Calm,-,N/A,,Clear,0,2012-10-06 04:53:00
1:53 AM,60.1,57.9,93,29.91,6.0,Calm,Calm,-,N/A,,Clear,0,2012-10-06 05:53:00
2:53 AM,60.1,57.0,90,29.88,6.0,Calm,Calm,-,N/A,,Clear,0,2012-10-06 06:53:00
3:36 AM,59.0,57.2,94,29.88,1.8,Calm,Calm,-,N/A,,Partly Cloudy,0,2012-10-06 07:36:00
3:53 AM,57.9,55.9,93,29.88,3.0,Calm,Calm,-,N/A,,Clear,0,2012-10-06 07:53:00
4:22 AM,57.2,55.4,94,29.88,6.0,Calm,Calm,-,N/A,,Partly Cloudy,0,2012-10-06 08:22:00
4:33 AM,57.2,55.4,94,29.87,1.8,Calm,Calm,-,N/A,,Scattered Clouds,0,2012-10-06 08:33:00
4:43 AM,57.2,55.4,94,29.87,3.0,Calm,Calm,-,N/A,,Partly Cloudy,0,2012-10-06 08:43:00
4:53 AM,57.0,55.0,93,29.87,4.0,Calm,Calm,-,N/A,,Mostly Cloudy,0,2012-10-06 08:53:00
5:02 AM,57.2,55.4,94,29.87,8.0,Calm,Calm,-,N/A,,Partly Cloudy,0,2012-10-06 09:02:00
5:53 AM,57.0,55.0,93,29.87,6.0,Calm,Calm,-,N/A,,Clear,0,2012-10-06 09:53:00
6:53 AM,66.0,61.0,84,29.86,10.0,SSW,4.6,-,N/A,,Scattered Clouds,200,2012-10-06 10:53:00
7:53 AM,68.0,61.0,78,29.86,10.0,SSW,6.9,-,N/A,,Scattered Clouds,210,2012-10-06 11:53:00
8:53 AM,69.1,61.0,75,29.85,10.0,SSW,6.9,-,N/A,,Mostly Cloudy,210,2012-10-06 12:53:00
9:53 AM,69.8,62.6,78,29.84,10.0,SW,15.0,-,N/A,,Mostly Cloudy,230,2012-10-06 13:53:00
10:53 AM,73.0,63.0,71,29.82,10.0,SW,13.8,-,N/A,,Mostly Cloudy,230,2012-10-06 14:53:00
11:53 AM,75.0,62.1,64,29.81,10.0,SSW,9.2,-,N/A,,Mostly Cloudy,210,2012-10-06 15:53:00
12:53 PM,77.0,62.1,60,29.78,10.0,SSW,9.2,-,N/A,,Mostly Cloudy,200,2012-10-06 16:53:00
1:53 PM,75.9,63.0,64,29.75,10.0,SSW,8.1,-,N/A,,Mostly Cloudy,210,2012-10-06 17:53:00
2:53 PM,75.9,63.0,64,29.75,10.0,SSW,8.1,-,N/A,,Mostly Cloudy,210,2012-10-06 18:53:00
3:53 PM,73.9,64.0,71,29.75,10.0,SSW,8.1,-,N/A,,Overcast,210,2012-10-06 19:53:00
4:03 PM,73.4,64.4,73,29.76,4.0,Variable,4.6,-,0.00,Rain,Light Rain,0,2012-10-06 20:03:00
4:53 PM,72.0,63.0,73,29.76,4.0,Variable,4.6,-,0.00,Rain,Light Rain,0,2012-10-06 20:53:00
5:53 PM,69.1,57.0,65,29.81,10.0,WNW,13.8,23.0,0.00,Rain,Light Rain,300,2012-10-06 21:53:00
6:53 PM,63.0,53.1,70,29.85,10.0,NNW,6.9,-,0.00,Rain,Light Rain,330,2012-10-06 22:53:00
7:53 PM,60.1,48.9,67,29.89,10.0,NNW,8.1,-,0.00,Rain,Light Rain,330,2012-10-06 23:53:00
8:53 PM,59.0,46.9,64,29.92,10.0,NW,4.6,-,0.00,Rain,Light Rain,320,2012-10-07 00:53:00
9:53 PM,57.0,46.0,67,29.95,10.0,Variable,5.8,-,0.00,Rain,Light Rain,0,2012-10-07 01:53:00
10:53 PM,55.9,46.0,69,29.97,10.0,NW,4.6,-,0.00,Rain,Light Rain,310,2012-10-07 02:53:00
11:53 PM,55.4,44.6,67,29.97,10.0,NW,3.5,-,N/A,Rain,Light Rain,310,2012-10-07 03:53:00